Tyler, TX

7:45 PM CDT on October 17, 2017 (GMT -0500)
Tyler Pounds

Weather History for KTYR - April, 2014

Change the Weather History Date:

Saturday, April 12, 2014

  Actual Average Record
Temperature  
Mean Temperature 74 °F 63 °F  
Max Temperature 83 °F 73 °F 91 °F (1936)
Min Temperature 64 °F 53 °F 32 °F (1940)
Degree Days  
Heating Degree Days 0 4  
Month to date heating degree days 55 60  
Since 1 July heating degree days 2468 2225  
Cooling Degree Days 9 2  
Month to date cooling degree days 48 19  
Year to date cooling degree days 64 52  
Growing Degree Days 23 (Base 50)    
Moisture  
Dew Point 59 °F    
Average Humidity 64    
Maximum Humidity 81    
Minimum Humidity 47    
Precipitation  
Precipitation 0.00 in 0.09 in 2.12 in (1917)
Month to date precipitation 2.13 1.14  
Year to date precipitation 8.43 12.13  
Snow  
Snow 0.00 in - - ()
Month to date snowfall 0.0  
Since 1 July snowfall 1.2  
Snow Depth 0.00 in    
Sea Level Pressure  
Sea Level Pressure 29.92 in    
Wind  
Wind Speed 16 mph (South)    
Max Wind Speed 25 mph    
Max Gust Speed 31 mph    
Visibility 10 miles    
Events      
T = Trace of Precipitation, MM = Missing Value Source: NWS Daily Summary

Daily Weather History Graph

Daily Weather History Graph

Search for Another Location

Airport or City:

Trip Planner

Search our weather history database for the weather conditions in past years. The results will help you decide how hot, cold, wet, or windy it might be!

Date:

Astronomy

Apr. 12, 2014 Rise Set
Actual Time 6:55 AM CDT 7:49 PM CDT
Civil Twilight 6:30 AM CDT 8:14 PM CDT
Nautical Twilight 6:01 AM CDT 8:43 PM CDT
Astronomical Twilight 5:30 AM CDT 9:14 PM CDT
Moon 5:35 PM CDT (4/12) 5:14 AM CDT (4/12)
Length of Visible Light 13h 43m
Length of Day
12h 53m
Waxing Gibbous, 93% of the Moon is Illuminated
Apr 12
Waxing Gibbous
Apr 15
Full
Apr 22
Last Quarter
Apr 29
New
May 6
First Quarter

Hourly Weather History & Observations

Time (CDT) Temp. Heat Index Dew Point Humidity Pressure Visibility Wind Dir Wind Speed Gust Speed Precip Events Conditions
12:53 AM 66.9 °F - 57.9 °F 73% 29.98 in 10.0 mi South 12.7 mph 20.7 mph N/A   Clear
1:53 AM 64.9 °F - 57.9 °F 78% 29.97 in 10.0 mi South 12.7 mph - N/A   Clear
2:51 AM 64.4 °F - 57.2 °F 77% 29.97 in 10.0 mi South 16.1 mph - N/A   Mostly Cloudy
2:53 AM 64.9 °F - 57.9 °F 78% 29.95 in 10.0 mi South 15.0 mph - N/A   Mostly Cloudy
3:53 AM 64.9 °F - 57.9 °F 78% 29.95 in 10.0 mi South 12.7 mph - N/A   Overcast
4:53 AM 64.9 °F - 57.9 °F 78% 29.95 in 10.0 mi South 9.2 mph - N/A   Overcast
5:53 AM 66.0 °F - 59.0 °F 78% 29.96 in 10.0 mi South 10.4 mph - N/A   Overcast
6:53 AM 66.0 °F - 59.0 °F 78% 29.97 in 10.0 mi South 13.8 mph 19.6 mph N/A   Overcast
7:53 AM 66.0 °F - 59.0 °F 78% 29.99 in 10.0 mi South 11.5 mph - N/A   Overcast
8:53 AM 66.9 °F - 60.1 °F 79% 29.99 in 10.0 mi South 11.5 mph - N/A   Mostly Cloudy
9:07 AM 68.0 °F - 60.8 °F 78% 30.00 in 10.0 mi South 15.0 mph 21.9 mph N/A   Scattered Clouds
9:53 AM 70.0 °F - 60.1 °F 71% 29.99 in 10.0 mi South 20.7 mph 27.6 mph N/A   Scattered Clouds
10:30 AM 71.6 °F - 60.8 °F 69% 30.00 in 10.0 mi South 13.8 mph 26.5 mph N/A   Mostly Cloudy
10:53 AM 73.0 °F - 61.0 °F 66% 29.99 in 10.0 mi South 15.0 mph 24.2 mph N/A   Mostly Cloudy
11:53 AM 75.0 °F - 60.1 °F 60% 29.98 in 10.0 mi South 19.6 mph 25.3 mph N/A   Mostly Cloudy
12:32 PM 77.0 °F - 60.8 °F 57% 29.98 in 10.0 mi South 19.6 mph 28.8 mph N/A   Scattered Clouds
12:53 PM 77.0 °F - 60.1 °F 56% 29.95 in 10.0 mi SSE 21.9 mph 28.8 mph N/A   Scattered Clouds
1:53 PM 80.1 °F 81.1 °F 61.0 °F 52% 29.91 in 10.0 mi South 15.0 mph 24.2 mph N/A   Scattered Clouds
2:53 PM 80.1 °F 80.9 °F 60.1 °F 50% 29.89 in 10.0 mi South 15.0 mph 24.2 mph N/A   Partly Cloudy
3:53 PM 82.0 °F 82.4 °F 60.1 °F 47% 29.85 in 10.0 mi South 15.0 mph 23.0 mph N/A   Partly Cloudy
4:53 PM 82.0 °F 82.4 °F 60.1 °F 47% 29.83 in 10.0 mi South 17.3 mph - N/A   Partly Cloudy
5:53 PM 81.0 °F 81.6 °F 60.1 °F 49% 29.82 in 10.0 mi South 17.3 mph 25.3 mph N/A   Clear
6:53 PM 79.0 °F - 59.0 °F 50% 29.81 in 10.0 mi South 17.3 mph 23.0 mph N/A   Partly Cloudy
7:53 PM 77.0 °F - 59.0 °F 54% 29.82 in 10.0 mi South 12.7 mph 20.7 mph N/A   Scattered Clouds
8:53 PM 73.9 °F - 59.0 °F 59% 29.82 in 10.0 mi South 18.4 mph 27.6 mph N/A   Clear
9:53 PM 73.0 °F - 59.0 °F 61% 29.83 in 10.0 mi South 18.4 mph 26.5 mph N/A   Clear
10:53 PM 71.1 °F - 59.0 °F 66% 29.85 in 10.0 mi South 17.3 mph 24.2 mph N/A   Scattered Clouds
11:53 PM 70.0 °F - 59.0 °F 68% 29.85 in 10.0 mi South 17.3 mph 21.9 mph N/A   Mostly Cloudy